This demonstration page uses our WeatherBlox Daily Observations layout. Learn more.

Left ArrowRight Arrow

Hourly Observations for July 3, 2022

Temp ( °F °C ) Dew Point ( °F °C ) Humidity (%) Winds ( mph kmh ) Pressure ( in mb ) Visibility ( mi km ) Precip ( " mm )
12:15 am 00:15 Clear 68 19.9 66 18.7 93 93 SE 7 11 29.96 1014 10 16 0.00 0.00
12:35 am 00:35 Clear 67 19.6 65 18.6 94 94 SSE 7 11 29.97 1015 10 16 0.00 0.00
12:55 am 00:55 Clear 67 19.5 65 18.6 95 95 SE 7 11 29.96 1015 10 16 0.00 0.00
1:15 am 01:15 Clear 67 19.2 65 18.5 96 96 SSE 6 9 29.97 1015 10 16 0.00 0.00
1:35 am 01:35 Clear 66 19.1 65 18.5 96 96 SE 5 7 29.98 1015 10 16 0.00 0.00
1:55 am 01:55 Clear 66 19 65 18.5 97 97 SE 6 9 29.98 1015 7 11 0.00 0.00
2:15 am 02:15 Clear with Mist and Fog 66 18.7 65 18.3 98 98 SE 6 9 29.97 1015 5 8 0.00 0.00
2:35 am 02:35 Clear with Mist and Fog 65 18.4 64 18 98 98 SE 6 9 29.97 1015 4 6 0.00 0.00
2:55 am 02:55 Clear with Mist and Fog 65 18.3 64 18 98 98 SE 7 11 29.98 1015 4 6 0.00 0.00
3:15 am 03:15 Partly Cloudy with Mist and Fog 65 18.2 64 17.9 98 98 SE 6 9 29.98 1015 3 5 0.00 0.00
3:35 am 03:35 Cloudy with Mist and Fog 66 19 66 18.9 99 99 SSE 8 13 29.97 1015 2 3 0.00 0.00
3:55 am 03:55 Cloudy with Mist and Fog 67 19.3 66 19.1 99 99 SE 7 11 29.96 1015 1 1 0.00 0.00
4:15 am 04:15 Cloudy with Mist and Fog 67 19.7 67 19.5 99 99 SSE 7 11 29.96 1015 1 1 0.00 0.00
4:35 am 04:35 Cloudy with Fog 68 20.2 68 20 99 99 SSE 8 13 29.96 1014 1 1 0.00 0.00
4:55 am 04:55 Cloudy with Fog 69 20.3 68 20.1 99 99 SSE 8 13 29.95 1014 1 1 0.00 0.00
5:15 am 05:15 Cloudy with Fog 69 20.3 68 20.1 99 99 SSE 10 17 29.96 1015 1 1 0.00 0.00
5:35 am 05:35 Cloudy with Mist and Fog 69 20.4 68 20.2 99 99 SSE 9 15 29.95 1014 2 2 0.00 0.00
5:55 am 05:55 Cloudy with Mist and Fog 69 20.5 68 20.2 98 98 SSE 10 17 29.95 1014 2 3 0.00 0.00
6:15 am 06:15 Cloudy with Mist and Fog 69 20.5 68 20.2 98 98 S 8 13 29.95 1014 2 3 0.00 0.00
6:35 am 06:35 Cloudy with Fog 69 20.5 68 20.2 98 98 SSE 9 15 29.94 1014 1 1 0.00 0.00
6:55 am 06:55 Cloudy with Fog 69 20.5 69 20.3 99 99 S 12 19 29.93 1014 1 1 0.00 0.00
7:15 am 07:15 Cloudy with Fog 69 20.7 69 20.5 99 99 S 12 19 29.93 1014 1 1 0.00 0.00
7:35 am 07:35 Cloudy with Mist and Fog 69 20.7 69 20.5 99 99 SSE 13 20 29.93 1014 2 2 0.00 0.00
7:55 am 07:55 Cloudy with Mist and Fog 69 20.8 69 20.5 98 98 SSE 9 15 29.93 1014 2 3 0.00 0.00
8:15 am 08:15 Cloudy with Mist and Fog 70 21 69 20.6 98 98 SSE 9 15 29.93 1014 2 3 0.00 0.00
8:35 am 08:35 Cloudy with Mist and Fog 70 21.1 69 20.7 98 98 SSE 12 19 29.93 1013 2 3 0.00 0.00
8:55 am 08:55 Cloudy with Mist and Fog 71 21.6 70 21 96 96 SSE 12 19 29.92 1013 3 5 0.00 0.00
9:15 am 09:15 Cloudy with Mist and Fog 71 21.8 70 21 95 95 SSE 15 24 29.92 1013 5 8 0.00 0.00
9:35 am 09:35 Cloudy 72 22.2 70 21 93 93 SSE 13 20 29.92 1013 7 11 0.00 0.00
9:55 am 09:55 Cloudy 73 22.7 70 21.1 91 91 SSE 10 17 29.92 1013 10 16 0.00 0.00
10:15 am 10:15 Cloudy 73 23 70 21 89 89 SSE 14 22 29.91 1013 10 16 0.00 0.00
10:35 am 10:35 Cloudy 74 23.1 70 21 88 88 SSE 13 20 29.90 1013 10 16 0.00 0.00
10:55 am 10:55 Cloudy 73 23 70 21 89 89 SSE 12 19 29.91 1013 10 16 0.00 0.00
11:15 am 11:15 Cloudy 74 23.3 70 21.2 88 88 S 12 19 29.91 1013 10 16 0.00 0.00
11:35 am 11:35 Cloudy 74 23.5 70 21.2 87 87 S 10 17 29.90 1012 10 16 0.00 0.00
11:55 am 11:55 Cloudy 76 24.2 70 21.3 84 84 S 13 20 29.88 1012 10 16 0.00 0.00
12:15 pm 12:15 Cloudy 77 24.8 71 21.5 82 82 S 12 19 29.88 1012 10 16 0.00 0.00
12:35 pm 12:35 Cloudy 79 26 71 21.8 78 78 S 8 13 29.87 1011 10 16 0.00 0.00
12:55 pm 12:55 Partly Cloudy 80 26.8 72 22.1 75 75 SSE 10 17 29.85 1011 10 16 0.00 0.00
1:15 pm 13:15 Sunny 82 27.8 72 22.2 72 72 SSE 10 17 29.84 1011 10 16 0.00 0.00
1:35 pm 13:35 Partly Cloudy 83 28.2 72 22.2 70 70 SSE 10 17 29.83 1010 10 16 0.00 0.00
1:55 pm 13:55 Partly Cloudy 85 29.5 73 22.5 66 66 SSE 9 15 29.82 1010 10 16 0.00 0.00
2:15 pm 14:15 Partly Cloudy 86 30.1 72 22.4 63 63 SE 13 20 29.81 1009 10 16 0.00 0.00
2:35 pm 14:35 Partly Cloudy 87 30.4 72 22.3 62 62 SSE 14 22 29.80 1009 10 16 0.00 0.00
2:55 pm 14:55 Partly Cloudy 88 30.9 72 22 59 59 SE 15 24 29.79 1009 10 16 0.00 0.00
3:15 pm 15:15 Partly Cloudy 88 31.2 72 22.3 59 59 SSE 15 24 29.78 1008 10 16 0.00 0.00
3:35 pm 15:35 Partly Cloudy 88 31.3 71 21.7 57 57 SSE 15 24 29.77 1008 10 16 0.00 0.00
3:55 pm 15:55 Partly Cloudy 88 31.3 71 21.8 57 57 SE 20 31 29.77 1008 10 16 0.00 0.00
4:15 pm 16:15 Partly Cloudy 89 31.7 71 21.8 56 56 SE 17 28 29.76 1008 10 16 0.00 0.00
4:35 pm 16:35 Sunny 88 31.1 72 22.1 59 59 SSE 17 28 29.76 1008 10 16 0.00 0.00
4:55 pm 16:55 Sunny 89 31.5 72 22.1 57 57 SE 17 28 29.76 1008 10 16 0.00 0.00
5:15 pm 17:15 Partly Cloudy 88 31.1 72 22.1 59 59 SE 18 30 29.75 1007 10 16 0.00 0.00
5:35 pm 17:35 Partly Cloudy 89 31.4 72 22.1 58 58 ESE 18 30 29.74 1007 10 16 0.00 0.00
5:55 pm 17:55 Sunny 88 31.2 71 21.9 58 58 SE 17 28 29.73 1007 10 16 0.00 0.00
6:15 pm 18:15 Sunny 88 30.9 71 21.6 58 58 SE 17 28 29.73 1007 10 16 0.00 0.00
6:35 pm 18:35 Sunny 87 30.4 72 22.4 62 62 ESE 17 28 29.72 1007 10 16 0.00 0.00
6:55 pm 18:55 Sunny 86 30 71 21.9 62 62 SE 18 30 29.71 1006 10 16 0.00 0.00
7:15 pm 19:15 Sunny 84 29.1 71 21.9 65 65 SE 15 24 29.72 1006 10 16 0.00 0.00
7:35 pm 19:35 Sunny 84 28.8 71 21.8 66 66 SE 15 24 29.71 1006 10 16 0.00 0.00
7:55 pm 19:55 Sunny 83 28.6 71 21.8 67 67 ESE 17 28 29.71 1006 10 16 0.00 0.00
8:15 pm 20:15 Sunny 83 28.2 71 21.9 69 69 ESE 16 26 29.72 1007 10 16 0.00 0.00
8:35 pm 20:35 Sunny 82 27.8 71 21.6 69 69 ESE 15 24 29.74 1007 10 16 0.00 0.00
8:55 pm 20:55 Sunny with Thunderstorms 82 27.6 71 21.9 71 71 ESE 17 28 29.74 1007 10 16 0.00 0.00
9:15 pm 21:15 Partly Cloudy with Thunderstorms 80 26.4 71 21.5 75 75 SSE 18 30 29.77 1008 10 16 0.00 0.00
9:35 pm 21:35 Mostly Cloudy with Thunderstorms 76 24.4 66 19 72 72 ESE 13 20 29.78 1009 10 16 0.00 0.00
9:55 pm 21:55 Mostly Cloudy with Thunderstorms 73 22.9 68 20.1 84 84 ESE 16 26 29.78 1009 10 16 0.00 0.00
10:15 pm 22:15 Mostly Cloudy with Thunderstorms 73 23 68 20 83 83 ESE 16 26 29.76 1008 10 16 0.00 0.00
10:35 pm 22:35 Cloudy with Thunderstorms 73 23 70 20.9 88 88 W 13 20 29.85 1011 10 16 0.01 0.25
10:55 pm 22:55 Mostly Clear with Thunderstorms 77 24.9 70 21.2 80 80 S 18 30 29.83 1010 3 5 0.25 6.35
11:15 pm 23:15 Cloudy with Strong Thunderstorms 74 23.5 71 21.8 90 90 S 10 17 29.86 1011 5 8 0.13 3.30
11:35 pm 23:35 Cloudy with Thunderstorms 74 23.1 71 21.9 93 93 ESE 15 24 29.81 1010 10 16 0.19 4.83
11:55 pm 23:55 Cloudy 74 23.3 71 21.8 91 91 ESE 14 22 29.79 1009 10 16 0.22 5.59

Powered by AerisWeather